Cairo, IL

9:06 PM CST on February 20, 2017 (GMT -0600)
Cairo Regional

Weather History for KCIR - November, 2012

Change the Weather History Date:

Monday, November 12, 2012

  Actual Average Record
Temperature  
Mean Temperature 43 °F -  
Max Temperature 53 °F 55 °F 80 °F (2010)
Min Temperature 33 °F 39 °F 24 °F (1976)
Degree Days  
Heating Degree Days 22    
Moisture  
Dew Point 31 °F    
Average Humidity 65    
Maximum Humidity 94    
Minimum Humidity 32    
Precipitation  
Precipitation 0.34 in - - ()
Sea Level Pressure  
Sea Level Pressure 30.33 in    
Wind  
Wind Speed 8 mph (WNW)    
Max Wind Speed 17 mph    
Max Gust Speed 23 mph    
Visibility 9 miles    
Events Rain    
Averages and records for this station are not official NWS values.
T = Trace of Precipitation, MM = Missing Value Source: NWS Daily Summary

Daily Weather History Graph

Daily Weather History Graph

Search for Another Location

Airport or City:

Trip Planner

Search our weather history database for the weather conditions in past years. The results will help you decide how hot, cold, wet, or windy it might be!

Date:

Astronomy

Nov. 12, 2012 Rise Set
Actual Time 6:32 AM CST 4:48 PM CST
Civil Twilight 6:05 AM CST 5:16 PM CST
Nautical Twilight 5:34 AM CST 5:47 PM CST
Astronomical Twilight 5:03 AM CST 6:18 PM CST
Moon 4:59 AM CST (11/12) 3:53 PM CST (11/12)
Length of Visible Light 11h 11m
Length of Day
10h 15m
Waning Crescent, 2% of the Moon is Illuminated
Nov 12
Waning Crescent
Nov 13
New
Nov 20
First Quarter
Nov 28
Full
Dec 6
Last Quarter

Hourly Weather History & Observations

Time (CST) Temp. Windchill Dew Point Humidity Pressure Visibility Wind Dir Wind Speed Gust Speed Precip Events Conditions
12:15 AM 53.6 °F - 51.8 °F 94% 30.03 in 3.0 mi West 3.5 mph - 0.03 in Rain Rain
12:35 AM 53.6 °F - 51.8 °F 94% 30.06 in 4.0 mi WSW 4.6 mph - 0.07 in Rain Rain
1:15 AM 53.6 °F - 51.8 °F 94% 30.06 in 4.0 mi West 3.5 mph - 0.03 in Rain Rain
1:35 AM 53.6 °F - 51.8 °F 94% 30.09 in 5.0 mi West 6.9 mph - 0.07 in Rain Light Rain
1:55 AM 53.6 °F - 50.0 °F 88% 30.10 in 4.0 mi SW 5.8 mph - 0.10 in Rain Heavy Rain
2:15 AM 53.6 °F - 50.0 °F 88% 30.08 in 5.0 mi West 9.2 mph - 0.04 in Rain Rain
2:35 AM 48.2 °F - 46.4 °F 93% 30.12 in 10.0 mi NW 13.8 mph 19.6 mph 0.07 in Rain Rain
2:55 AM 48.2 °F - 44.6 °F 87% 30.11 in 2.5 mi NW 11.5 mph - 0.09 in   Unknown
3:15 AM 46.4 °F 41.1 °F 44.6 °F 93% 30.11 in 4.0 mi NW 11.5 mph - 0.03 in   Unknown
3:35 AM 46.4 °F 40.4 °F 42.8 °F 87% 30.15 in 7.0 mi WNW 13.8 mph 18.4 mph 0.05 in   Unknown
3:55 AM 46.4 °F 41.1 °F 42.8 °F 87% 30.15 in 10.0 mi NW 11.5 mph - 0.07 in   Overcast
4:15 AM 44.6 °F 38.1 °F 41.0 °F 87% 30.15 in 10.0 mi NW 13.8 mph - 0.02 in   Overcast
4:35 AM 44.6 °F 38.8 °F 41.0 °F 87% 30.19 in 10.0 mi NNW 11.5 mph 17.3 mph 0.04 in   Overcast
4:55 AM 42.8 °F 36.2 °F 39.2 °F 87% 30.18 in 10.0 mi NW 12.7 mph - 0.05 in   Overcast
5:15 AM 42.8 °F 37.0 °F 39.2 °F 87% 30.22 in 5.0 mi NW 10.4 mph - 0.01 in   Overcast
5:35 AM 41.0 °F 33.9 °F 37.4 °F 87% 30.21 in 7.0 mi NW 12.7 mph - 0.02 in   Overcast
5:55 AM 41.0 °F 33.5 °F 37.4 °F 87% 30.24 in 4.0 mi WNW 13.8 mph 18.4 mph 0.02 in   Overcast
6:15 AM 41.0 °F 33.5 °F 37.4 °F 87% 30.26 in 10.0 mi WNW 13.8 mph 18.4 mph 0.01 in   Overcast
6:35 AM 41.0 °F 32.8 °F 37.4 °F 87% 30.28 in 10.0 mi NW 16.1 mph - 0.01 in   Overcast
6:55 AM 39.2 °F 32.0 °F 35.6 °F 87% 30.29 in 10.0 mi WNW 11.5 mph - 0.01 in   Overcast
7:15 AM 37.4 °F 29.3 °F 32.0 °F 81% 30.31 in 10.0 mi NW 12.7 mph 18.4 mph N/A   Scattered Clouds
7:35 AM 37.4 °F 30.3 °F 30.2 °F 75% 30.32 in 10.0 mi NW 10.4 mph 19.6 mph N/A   Clear
7:55 AM 37.4 °F 28.5 °F 28.4 °F 70% 30.33 in 10.0 mi NW 15.0 mph 21.9 mph N/A   Clear
8:15 AM 37.4 °F 28.9 °F 28.4 °F 70% 30.33 in 10.0 mi NW 13.8 mph - N/A   Clear
8:35 AM 39.2 °F 30.8 °F 28.4 °F 65% 30.34 in 10.0 mi NW 15.0 mph 18.4 mph N/A   Clear
8:55 AM 39.2 °F 31.2 °F 26.6 °F 61% 30.36 in 10.0 mi NW 13.8 mph 23.0 mph N/A   Clear
9:15 AM 39.2 °F 31.6 °F 26.6 °F 61% 30.36 in 10.0 mi NW 12.7 mph 17.3 mph N/A   Clear
9:35 AM 41.0 °F 32.5 °F 24.8 °F 53% 30.38 in 10.0 mi NW 17.3 mph 21.9 mph N/A   Clear
9:55 AM 41.0 °F 33.9 °F 24.8 °F 53% 30.38 in 10.0 mi NNW 12.7 mph - N/A   Clear
10:15 AM 42.8 °F 36.6 °F 26.6 °F 53% 30.40 in 10.0 mi NNW 11.5 mph - N/A   Clear
10:35 AM 44.6 °F 38.8 °F 26.6 °F 49% 30.39 in 10.0 mi NNW 11.5 mph 16.1 mph N/A   Clear
10:55 AM 44.6 °F 39.2 °F 26.6 °F 49% 30.40 in 10.0 mi NW 10.4 mph 16.1 mph N/A   Clear
11:15 AM 46.4 °F 41.5 °F 26.6 °F 46% 30.40 in 10.0 mi NW 10.4 mph - N/A   Clear
11:35 AM 46.4 °F 42.4 °F 24.8 °F 43% 30.39 in 10.0 mi NW 8.1 mph - N/A   Clear
11:55 AM 48.2 °F - 24.8 °F 40% 30.39 in 10.0 mi NNW 9.2 mph - N/A   Clear
12:15 PM 48.2 °F - 24.8 °F 40% 30.38 in 10.0 mi West 6.9 mph - N/A   Clear
12:35 PM 48.2 °F - 23.0 °F 37% 30.38 in 10.0 mi WNW 12.7 mph - N/A   Clear
12:55 PM 48.2 °F - 23.0 °F 37% 30.36 in 10.0 mi NW 9.2 mph - N/A   Clear
1:15 PM 48.2 °F - 21.2 °F 34% 30.37 in 10.0 mi West 10.4 mph - N/A   Clear
1:35 PM 50.0 °F - 21.2 °F 32% 30.37 in 10.0 mi NW 9.2 mph - N/A   Clear
1:55 PM 50.0 °F - 21.2 °F 32% 30.37 in 10.0 mi West 8.1 mph - N/A   Clear
2:15 PM 50.0 °F - 23.0 °F 35% 30.36 in 10.0 mi WNW 4.6 mph - N/A   Clear
2:35 PM 50.0 °F - 21.2 °F 32% 30.36 in 10.0 mi WNW 9.2 mph - N/A   Clear
2:55 PM 50.0 °F - 21.2 °F 32% 30.35 in 10.0 mi West 5.8 mph - N/A   Clear
3:15 PM 50.0 °F - 21.2 °F 32% 30.36 in 10.0 mi WSW 6.9 mph - N/A   Clear
3:35 PM 50.0 °F - 21.2 °F 32% 30.37 in 10.0 mi West 8.1 mph - N/A   Clear
3:55 PM 50.0 °F - 21.2 °F 32% 30.38 in 10.0 mi WSW 4.6 mph - N/A   Clear
4:15 PM 48.2 °F - 21.2 °F 34% 30.38 in 10.0 mi WSW 4.6 mph - N/A   Clear
4:35 PM 46.4 °F - 21.2 °F 37% 30.39 in 10.0 mi Calm Calm - N/A   Clear
4:55 PM 46.4 °F 45.2 °F 23.0 °F 40% 30.40 in 10.0 mi SW 3.5 mph - N/A   Clear
5:15 PM 44.6 °F 43.1 °F 24.8 °F 46% 30.40 in 10.0 mi SSW 3.5 mph - N/A   Clear
5:35 PM 42.8 °F - 24.8 °F 49% 30.40 in 10.0 mi Calm Calm - N/A   Clear
5:55 PM 41.0 °F 37.1 °F 26.6 °F 57% 30.41 in 10.0 mi South 5.8 mph - N/A   Clear
6:15 PM 42.8 °F 41.1 °F 28.4 °F 57% 30.41 in 10.0 mi South 3.5 mph - N/A   Clear
6:35 PM 42.8 °F 41.1 °F 26.6 °F 53% 30.41 in 10.0 mi South 3.5 mph - N/A   Clear
6:55 PM 41.0 °F 38.0 °F 26.6 °F 57% 30.42 in 10.0 mi South 4.6 mph - N/A   Clear
7:35 PM 41.0 °F 38.0 °F 28.4 °F 61% 30.43 in 10.0 mi SSW 4.6 mph - N/A   Clear
7:55 PM 41.0 °F 39.0 °F 28.4 °F 61% 30.43 in 10.0 mi SSW 3.5 mph - N/A   Clear
8:15 PM 41.0 °F 39.0 °F 30.2 °F 65% 30.44 in 10.0 mi SW 3.5 mph - N/A   Clear
8:35 PM 42.8 °F 41.1 °F 30.2 °F 61% 30.44 in 10.0 mi WSW 3.5 mph - N/A   Clear
8:55 PM 39.2 °F - 28.4 °F 65% 30.45 in 10.0 mi Calm Calm - N/A   Clear
9:15 PM 35.6 °F - 28.4 °F 75% 30.46 in 10.0 mi Calm Calm - N/A   Clear
9:35 PM 37.4 °F - 30.2 °F 75% 30.46 in 10.0 mi Calm Calm - N/A   Clear
9:55 PM 35.6 °F - 28.4 °F 75% 30.46 in 10.0 mi Calm Calm - N/A   Clear
10:15 PM 33.8 °F - 28.4 °F 81% 30.46 in 10.0 mi Calm Calm - N/A   Clear
10:35 PM 33.8 °F - 30.2 °F 87% 30.46 in 10.0 mi Calm Calm - N/A   Clear
10:55 PM 33.8 °F - 28.4 °F 81% 30.47 in 10.0 mi Calm Calm - N/A   Clear
11:15 PM 33.8 °F - 30.2 °F 87% 30.47 in 10.0 mi Calm Calm - N/A   Clear
11:35 PM 33.8 °F - 30.2 °F 87% 30.47 in 10.0 mi Calm Calm - N/A   Clear
11:55 PM 33.8 °F - 30.2 °F 87% 30.47 in 10.0 mi Calm Calm - N/A   Clear